FW0743 Weather Reports


time (UTC)temp
C
wind
direction
speed
KPH
gust
KPH
rain 1hr
cm
rain 24hr
cm
rain mn
cm
humidity
%
barometer
mb
20260904071508 16 338 0.0 1.6 0.00 0.00 0.00 97 1013.0
20260904070014 16 338 0.0 0.0 0.00 0.00 0.00 97 1012.9
20260904064520 16 338 0.0 4.8 0.00 0.00 0.00 97 1012.8
20260904063032 16 348 0.0 1.6 0.00 0.00 0.00 97 1012.9
20260904061509 16 348 0.0 1.6 0.00 0.00 0.00 97 1013.2
20260904060016 17 348 0.0 4.8 0.00 0.00 0.00 98 1013.2
20260904054518 17 282 0.0 3.2 0.00 0.00 0.00 97 1013.4
20260904053041 16 282 0.0 3.2 0.00 0.00 0.00 97 1013.5
20260904051537 16 282 0.0 1.6 0.00 0.00 0.00 97 1013.6
20260904050006 16 282 0.0 0.0 0.00 0.00 0.00 97 1013.5
20260904044520 16 282 0.0 0.0 0.00 0.00 0.00 97 1013.6
20260904043032 16 282 0.0 1.6 0.00 0.00 0.00 97 1013.4
20260904041527 16 282 0.0 0.0 0.00 0.00 0.00 96 1013.5
20260904040009 16 282 0.0 0.0 0.00 0.00 0.00 97 1013.4
20260904034511 16 282 0.0 0.0 0.00 0.00 0.00 96 1013.4
20260904033019 16 282 0.0 0.0 0.00 0.00 0.00 96 1013.5
20260904031535 17 282 0.0 3.2 0.00 0.00 0.00 96 1013.5
20260904030030 17 208 0.0 4.8 0.00 0.00 0.00 96 1013.5
20260904024508 17 140 0.0 3.2 0.00 0.00 0.00 96 1013.5
20260904023014 17 40 0.0 1.6 0.00 0.00 0.00 95 1013.5
20260904021525 17 40 0.0 1.6 0.00 0.00 0.00 95 1013.7
20260904020028 17 40 0.0 0.0 0.00 0.00 0.00 95 1013.7
20260904014533 17 40 0.0 1.6 0.00 0.03 0.00 94 1013.6
20260904013012 18 40 0.0 1.6 0.00 0.08 0.00 94 1013.7
20260904011518 18 40 0.0 0.0 0.00 0.13 0.00 93 1013.6
20260904010026 18 40 0.0 0.0 0.00 0.15 0.00 93 1013.8
20260904004534 18 40 0.0 0.0 0.00 0.20 0.00 92 1013.8
20260904003033 18 40 0.0 1.6 0.00 0.28 0.00 92 1013.6
20260904001516 19 40 0.0 1.6 0.00 0.33 0.00 91 1013.4
20260904000024 20 40 0.0 0.0 0.00 0.36 0.00 88 1013.5
20260903234529 20 40 0.0 0.0 0.00 0.36 0.00 87 1013.4
20260903233031 20 40 0.0 0.0 0.00 0.36 0.00 85 1013.3
20260903231512 21 40 0.0 0.0 0.00 0.36 0.00 83 1013.2
20260903230034 22 40 0.0 0.0 0.00 0.36 0.00 82 1013.1
20260903224533 22 40 0.0 0.0 0.00 0.36 0.00 80 1013.0
20260903223031 23 40 0.0 4.8 0.00 0.36 0.00 73 1013.1
20260903221512 23 26 0.0 4.8 0.00 0.36 0.00 71 1013.2
20260903220025 23 58 1.6 4.8 0.00 0.36 0.00 70 1013.2
20260903214530 24 61 0.0 4.8 0.00 0.36 0.00 70 1013.1
20260903213041 24 90 1.6 6.4 0.00 0.36 0.00 68 1013.0
20260903211523 24 30 3.2 8.0 0.00 0.36 0.00 66 1013.2
20260903210018 25 52 3.2 14.5 0.00 0.36 0.00 62 1013.3
20260903204519 25 302 4.8 14.5 0.00 0.36 0.00 64 1013.5
20260903203027 25 338 6.4 17.7 0.00 0.36 0.00 60 1013.5
20260903201535 25 322 3.2 16.1 0.00 0.36 0.00 63 1013.5
20260903200013 26 303 8.0 16.1 0.00 0.36 0.00 61 1013.5
20260903194523 26 308 4.8 14.5 0.00 0.36 0.00 61 1013.5
20260903193025 25 5 6.4 14.5 0.00 0.36 0.00 63 1013.7
20260903191528 25 292 1.6 11.3 0.00 0.36 0.00 62 1013.7
20260903190030 25 306 6.4 14.5 0.00 0.36 0.00 62 1013.9
20260903184515 25 307 6.4 16.1 0.00 0.36 0.00 62 1014.0
20260903183019 25 305 8.0 22.5 0.00 0.36 0.00 63 1014.0
20260903181532 25 360 8.0 17.7 0.00 0.36 0.00 62 1014.0
20260903180040 25 17 3.2 17.7 0.00 0.36 0.00 69 1013.9
20260903174533 25 335 3.2 12.9 0.00 0.36 0.00 64 1013.9
20260903173015 25 347 8.0 16.1 0.00 0.36 0.00 67 1014.0
20260903171524 25 302 4.8 16.1 0.00 0.36 0.00 68 1014.0
20260903170027 24 331 3.2 16.1 0.00 0.36 0.00 69 1014.0
20260903164529 24 20 3.2 12.9 0.00 0.36 0.00 66 1014.2
20260903163034 24 311 4.8 14.5 0.00 0.36 0.00 71 1014.2
20260903161519 23 306 3.2 14.5 0.00 0.36 0.00 75 1014.2
20260903160025 23 20 4.8 16.1 0.00 0.36 0.00 77 1014.4
20260903154539 23 266 3.2 12.9 0.00 0.36 0.00 81 1014.6
20260903153030 23 312 6.4 17.7 0.00 0.38 0.00 81 1014.7
20260903151518 22 343 4.8 16.1 0.00 0.48 0.00 85 1014.7
20260903150025 22 290 6.4 14.5 0.00 0.56 0.00 84 1014.7
20260903144530 21 308 6.4 16.1 0.00 0.66 0.00 86 1014.6
20260903143044 21 342 3.2 17.7 0.00 0.76 0.00 92 1014.6
20260903141517 20 240 1.6 16.1 0.00 0.84 0.00 96 1014.6
20260903140016 20 314 3.2 12.9 0.00 0.91 0.00 96 1014.6
20260903134503 20 313 3.2 9.7 0.00 0.91 0.00 98 1014.5
20260903133007 19 315 1.6 11.3 0.00 0.94 0.00 98 1014.5
20260903131513 18 265 1.6 6.4 0.00 1.02 0.00 98 1014.6
20260903130017 18 223 3.2 8.0 0.00 1.02 0.00 98 1014.6
20260903124517 18 287 0.0 3.2 0.00 1.02 0.00 98 1014.5
20260903123006 18 263 1.6 9.7 0.00 1.02 0.00 98 1014.4
20260903121508 18 264 1.6 6.4 0.00 1.02 0.00 99 1014.5
20260903120015 18 281 1.6 6.4 0.00 1.02 0.00 98 1014.5
20260903114520 18 267 1.6 4.8 0.00 1.02 0.00 99 1014.4
20260903113022 17 267 0.0 1.6 0.00 1.02 0.00 98 1014.1
20260903111508 17 267 0.0 4.8 0.00 1.02 0.00 98 1014.0
20260903110011 17 225 0.0 3.2 0.00 1.02 0.00 99 1013.8
20260903104520 17 180 0.0 1.6 0.00 1.02 0.00 98 1013.6
20260903103020 17 180 0.0 1.6 0.00 1.02 0.00 98 1013.7
20260903101527 17 180 0.0 1.6 0.00 1.02 0.00 98 1013.7
20260903100008 17 180 0.0 1.6 0.00 1.02 0.00 98 1013.7
20260903094514 17 180 0.0 3.2 0.00 1.02 0.00 98 1013.7
20260903093036 17 236 0.0 1.6 0.00 1.02 0.00 98 1013.8
20260903091532 17 236 0.0 4.8 0.00 1.02 0.00 98 1013.8
20260903090028 17 152 0.0 1.6 0.00 1.02 0.00 98 1013.7
20260903084533 17 152 1.6 4.8 0.00 1.02 0.00 98 1013.7
20260903083021 17 152 0.0 3.2 0.00 1.02 0.00 98 1013.5
20260903081528 17 152 0.0 3.2 0.00 1.02 0.00 98 1013.6
20260903080024 17 152 1.6 8.0 0.00 1.02 0.00 98 1013.6
20260903074509 17 221 0.0 3.2 0.00 1.02 0.00 98 1013.6
20260903073018 17 221 0.0 3.2 0.00 1.02 0.00 98 1014.0